Regional Weather Roundup
Issued by NWS

Home | Current Version | Previous Version | Text Only | Print | Product List | Glossary Off
Versions: 1 2 3 4 5 6 7 8 9 10 11 12 13 14 15 16 17 18 19 20 21 22 23 24 25 26 27 28 29 30 31 32 33 34 35 36 37 38 39 40 41 42 43 44 45 46 47 48 49 50

000
ASUS45 KCYS 011610
RWRWY

WYOMING REGIONAL WEATHER ROUNDUP
NATIONAL WEATHER SERVICE CHEYENNE WY
900 AM MST SUN FEB 01 2015

NOTE:  "FAIR" INDICATES FEW OR NO CLOUDS BELOW 12,000 FEET
WITH NO SIGNIFICANT WEATHER AND/OR OBSTRUCTIONS TO VISIBILITY.

WYZ001-011700-
YELLOWSTONE NATIONAL PARK

CITY           SKY/WX    TMP DP  RH WIND       PRES   REMARKS
LK YELLOWSTONE   N/A     10   7  87 CALM      30.15S
W YELLOWSTONE  NOT AVBL

$$
WYZ002>013-054>058-071-098>099-011700-
NORTHERN WYOMING

CITY           SKY/WX    TMP DP  RH WIND       PRES   REMARKS
JACKSON        SUNNY      5   5 100 NE5       30.19S WCI  -4
CODY           CLOUDY    12  10  92 CALM      30.21F
GREYBULL       FAIR      15   7  70 CALM      30.31S
WORLAND        FAIR      12   6  77 NE6       30.30S WCI   3
SHERIDAN       FAIR      11   3  70 W6        30.31F WCI   1
BUFFALO        CLOUDY     9   4  80 NW3       30.25S
GILLETTE       FAIR       6   0  76 NW12      30.29R WCI  -9
HULETT           N/A    N/A N/A N/A MISG        N/A
NEWCASTLE      FAIR       7  -2  66 NW14G20   30.28R WCI -10

$$
WYZ014>020-022>026-101>103-011700-
CENTRAL WYOMING

CITY           SKY/WX    TMP DP  RH WIND       PRES   REMARKS
BIG PINEY      FAIR      18   9  68 CALM      30.13R
PINEDALE       FAIR      12   5  73 NW10      30.12S WCI  -1
DUBOIS         FAIR      21   7  53 NW18G25   30.09S WCI   6
LANDER         CLOUDY    21  17  84 SW3       30.19R
RIVERTON       CLOUDY    20  15  81 SE6       30.20S WCI  12
CASPER         LGT SNOW  12   7  80 NE8       30.23R WCI   0
DOUGLAS        CLOUDY    15   5  64 NW23G35   30.23R WCI  -3

$$
WYZ021-027>030-104>119-011700-
SOUTHERN WYOMING

CITY           SKY/WX    TMP DP  RH WIND       PRES   REMARKS
EVANSTON       FAIR      25  18  74 SW13      30.17R WCI  14
FORT BRIDGER   FAIR      27  19  73 W12       30.18S WCI  16
ROCK SPRINGS   FAIR      24  13  62 W12       30.14R WCI  13
DIXON          FAIR      20  16  84 CALM      30.18R
RAWLINS        FAIR      23  15  71 N5        30.14R WCI  17
SARATOGA       CLOUDY    21  18  86 N5        30.14R WCI  15
LARAMIE        FLURRIES  18  12  77 NW20      30.06R WCI   2
CHEYENNE       CLOUDY    14  10  84 N10       30.10R WCI   1
TORRINGTON     PTSUNNY   17   4  56 N18G29    30.23R WCI   1
PINE BLUFFS    FAIR      19  12  73 N21G29    30.15R WCI   3

$$



USA.gov is the U.S. government's official web portal to all federal, state and local government web resources and services.